Powrót do katalogu

DELTA 1 DEB

AktywnySSO
NORAD 12209·DEBRIS·🇺🇸 United States

Wystrzelony Mar 5, 1978 z Vandenberg Space Force Base

Loading…

Następne Przeloty (najbliższe 24 godziny)

TLE

ŚwieżeSource: Space-Track

Epoka: Sep 14, 2026, 22:07 UTC

1 12209U 78026BA  26257.92214444  .00000642  00000-0  21630-3 0  9996
2 12209  98.6088 290.4190 0057061 125.0530 356.3399 14.39450021361103

Śledź DELTA 1 DEB w czasie rzeczywistym z AllMySat

Download on the App Store